Training

Spin Video   We captured this 11 turn spin one day while out enjoying a flight in the Super Decathlon. Our advanced stall and spin class generally does 2-3 turn … [Read More...]

Weather

METAR FOR KCHA (Issued: Sun, August 30th 2015 8:53 AM UTC):
KCHA 300853Z AUTO 00000KT 10SM SCT120 22/20 A3011 RMK AO2 SLP189 T02170200 56003

Accomplishments

Congratulations

Congratulations, Ray Sikich who soloed in N68810 on June 3, 2015 … [Read More...]

Congratulations

Congratulations to Bobby Fitzu, for soloing on May 8, 2015 … [Read More...]

Dallas Bay Skypark - 1A0